Check out our new BloomSky Weather System.

Active alerts


No alerts


Thunder radar  blitzortung!


Rain radar more information rain snow radar


Visit our other weather sites:

Template documentation
and downloads

And another site



Weather Underground History page Text

Daily Summary for March 2, 2017 Units:  Metric    English   Both
« Previous Day
Next Day »
Daily Weekly Monthly Yearly Custom
  High: Low: Average:
Temperature: -17.8 °C 9.2 °C 14 °C
Dew Point: -17.8 °C -3.2 °C -1.1 °C
Humidity: Humidity % 23 % 37 %
Wind Speed: 0 km/h 0 km/h 3.2 km/h
Wind Gust: 0 km/h - -
Wind:- - SSW
Pressure: 0 hPa 1023.2 hPa -
Precipitation: 0 mm    
Historical Graphs
 
 
Tabular Data for March 2, 2017
Time Temperature Dew Point Pressure Wind Wind Speed Wind Gust Humidity Rainfall Rate (Hourly)
-17.8 °C -17.8 °C 0 hPa Calm     Humidity % 0 mm
00:00 14.8 °C -1.7 °C 1023.2 hPa WNW 1.6 km/h 11.3 km/h 32 % 0 mm
00:05 14.7 °C -1.8 °C 1023.2 hPa NW 3.2 km/h 14.5 km/h 32 % 0 mm
00:10 14.6 °C -1.5 °C 1023.2 hPa NNW 6.4 km/h 14.5 km/h 33 % 0 mm
00:12 14.6 °C -1.9 °C 1023.2 hPa NNW 3.2 km/h 14.5 km/h 32 % 0 mm
00:17 14.6 °C -1.9 °C 1023.2 hPa NNW 9.7 km/h 17.7 km/h 32 % 0 mm
00:22 14.6 °C -1.9 °C 1023.2 hPa Calm   17.7 km/h 32 % 0 mm
00:27 14.4 °C -1.7 °C 1023.2 hPa NW 1.6 km/h 19.3 km/h 33 % 0 mm
00:32 14.3 °C -2.2 °C 1023.2 hPa NNW 3.2 km/h 19.3 km/h 32 % 0 mm
00:37 14.2 °C -1.9 °C 1023.2 hPa NW 6.4 km/h 19.3 km/h 33 % 0 mm
00:42 14.1 °C -1.9 °C 1023.2 hPa NW 3.2 km/h 12.9 km/h 33 % 0 mm
00:47 14 °C -2 °C 1023.2 hPa NNW 1.6 km/h 12.9 km/h 33 % 0 mm
00:52 13.9 °C -2.1 °C 1023.2 hPa North 3.2 km/h 12.9 km/h 33 % 0 mm
00:57 13.9 °C -2.1 °C 1023.2 hPa NNW 3.2 km/h 12.9 km/h 33 % 0 mm
01:02 13.9 °C -2.1 °C 1023.6 hPa NNE 3.2 km/h 19.3 km/h 33 % 0 mm
01:07 13.8 °C -2.2 °C 1023.6 hPa NW 4.8 km/h 19.3 km/h 33 % 0 mm
01:12 13.8 °C -2.2 °C 1023.6 hPa NNW 3.2 km/h 19.3 km/h 33 % 0 mm
01:17 13.6 °C -2.4 °C 1023.6 hPa NW 4.8 km/h 17.7 km/h 33 % 0 mm
01:18 13.6 °C -2.4 °C 1023.6 hPa NNW 1.6 km/h 17.7 km/h 33 % 0 mm
01:23 13.4 °C -2.2 °C 1023.6 hPa WNW 4.8 km/h 12.9 km/h 34 % 0 mm
01:28 13.3 °C -2.2 °C 1023.6 hPa WNW 1.6 km/h 14.5 km/h 34 % 0 mm
01:33 13.2 °C -1.9 °C 1023.6 hPa NNW 1.6 km/h 14.5 km/h 35 % 0 mm
01:38 13.1 °C -2 °C 1023.6 hPa NW 4.8 km/h 14.5 km/h 35 % 0 mm
01:44 12.9 °C -2.2 °C 1023.6 hPa NNW 4.8 km/h 14.5 km/h 35 % 0 mm
01:49 12.9 °C -2.2 °C 1023.6 hPa Calm   14.5 km/h 35 % 0 mm
01:54 12.8 °C -2.3 °C 1023.6 hPa NNW 1.6 km/h 9.7 km/h 35 % 0 mm
01:59 12.8 °C -2.3 °C 1023.6 hPa North 6.4 km/h 14.5 km/h 35 % 0 mm
02:04 12.7 °C -2.4 °C 1023.6 hPa North 4.8 km/h 14.5 km/h 35 % 0 mm
02:09 12.6 °C -2.1 °C 1023.6 hPa NW 3.2 km/h 14.5 km/h 36 % 0 mm
02:14 12.6 °C -2.5 °C 1023.9 hPa NW 3.2 km/h 9.7 km/h 35 % 0 mm
02:19 12.6 °C -2.5 °C 1023.9 hPa NW 3.2 km/h 11.3 km/h 35 % 0 mm
02:24 12.6 °C -2.5 °C 1023.9 hPa NNE 3.2 km/h 11.3 km/h 35 % 0 mm
02:29 12.5 °C -2.2 °C 1023.9 hPa NW 3.2 km/h 12.9 km/h 36 % 0 mm
02:34 12.4 °C -2.3 °C 1023.6 hPa North 1.6 km/h 12.9 km/h 36 % 0 mm
02:39 12.2 °C -2.1 °C 1023.9 hPa North 4.8 km/h 12.9 km/h 37 % 0 mm
02:44 12.2 °C -2.1 °C 1023.9 hPa NNW 3.2 km/h 12.9 km/h 37 % 0 mm
02:49 12.1 °C -2.2 °C 1023.9 hPa NW 1.6 km/h 11.3 km/h 37 % 0 mm
02:54 12.1 °C -2.2 °C 1023.9 hPa NW 1.6 km/h 11.3 km/h 37 % 0 mm
02:59 11.9 °C -2 °C 1023.9 hPa NW 1.6 km/h 11.3 km/h 38 % 0 mm
03:04 11.9 °C -2 °C 1024.3 hPa North 4.8 km/h 8 km/h 38 % 0 mm
03:09 11.8 °C -2.1 °C 1023.9 hPa Calm   12.9 km/h 38 % 0 mm
03:14 11.7 °C -1.8 °C 1023.9 hPa NNE 1.6 km/h 12.9 km/h 39 % 0 mm
03:19 11.6 °C -1.9 °C 1024.3 hPa North 1.6 km/h 12.9 km/h 39 % 0 mm
03:24 11.5 °C -2 °C 1024.3 hPa NNW 6.4 km/h 8 km/h 39 % 0 mm
03:29 11.4 °C -1.7 °C 1023.9 hPa Calm   8 km/h 40 % 0 mm
03:34 11.3 °C -1.8 °C 1024.3 hPa NNW 1.6 km/h 9.7 km/h 40 % 0 mm
03:39 11.2 °C -1.9 °C 1024.3 hPa North 3.2 km/h 9.7 km/h 40 % 0 mm
03:44 11.1 °C -2 °C 1024.3 hPa NNW 1.6 km/h 9.7 km/h 40 % 0 mm
03:49 11.1 °C -1.7 °C 1024.3 hPa North 1.6 km/h 8 km/h 41 % 0 mm
03:54 11 °C -1.8 °C 1024.3 hPa NW 1.6 km/h 8 km/h 41 % 0 mm
03:59 10.9 °C -1.8 °C 1024.3 hPa NNW 3.2 km/h 8 km/h 41 % 0 mm
04:04 10.9 °C -1.8 °C 1024.3 hPa NNW 1.6 km/h 11.3 km/h 41 % 0 mm
04:09 10.8 °C -1.9 °C 1024.3 hPa North 1.6 km/h 11.3 km/h 41 % 0 mm
04:14 10.7 °C -1.7 °C 1024.3 hPa Calm   11.3 km/h 42 % 0 mm
04:19 10.7 °C -1.7 °C 1024.3 hPa NNW 1.6 km/h 8 km/h 42 % 0 mm
04:24 10.7 °C -1.7 °C 1024.3 hPa NW 1.6 km/h 9.7 km/h 42 % 0 mm
04:29 10.6 °C -1.8 °C 1024.6 hPa NW 3.2 km/h 9.7 km/h 42 % 0 mm
04:34 10.5 °C -1.9 °C 1024.6 hPa NNW 1.6 km/h 9.7 km/h 42 % 0 mm
04:39 10.5 °C -1.9 °C 1024.6 hPa North 3.2 km/h 8 km/h 42 % 0 mm
04:44 10.4 °C -1.6 °C 1024.9 hPa NNW 3.2 km/h 8 km/h 43 % 0 mm
04:49 10.4 °C -2 °C 1024.9 hPa Calm   6.4 km/h 42 % 0 mm
04:54 10.4 °C -2 °C 1024.9 hPa North 3.2 km/h 8 km/h 42 % 0 mm
04:59 10.4 °C -2 °C 1024.9 hPa NNW 1.6 km/h 8 km/h 42 % 0 mm
05:04 10.4 °C -2 °C 1025.3 hPa NNW 1.6 km/h 9.7 km/h 42 % 0 mm
05:09 10.4 °C -2 °C 1025.3 hPa NNW 4.8 km/h 9.7 km/h 42 % 0 mm
05:14 10.3 °C -2.1 °C 1025.3 hPa NNE 3.2 km/h 11.3 km/h 42 % 0 mm
05:19 10.3 °C -2.1 °C 1025.6 hPa North 3.2 km/h 11.3 km/h 42 % 0 mm
05:24 10.2 °C -1.8 °C 1025.6 hPa NNW 3.2 km/h 11.3 km/h 43 % 0 mm
05:29 10.2 °C -1.8 °C 1025.6 hPa NNE 9.7 km/h 9.7 km/h 43 % 0 mm
05:35 10.1 °C -1.9 °C 1025.6 hPa Calm   11.3 km/h 43 % 0 mm
05:40 10 °C -2 °C 1025.6 hPa Calm   11.3 km/h 43 % 0 mm
05:45 9.9 °C -1.8 °C 1026 hPa NNW 4.8 km/h 11.3 km/h 44 % 0 mm
05:50 9.9 °C -1.8 °C 1026 hPa ENE 6.4 km/h 8 km/h 44 % 0 mm
05:55 9.9 °C -2.1 °C 1026 hPa NW 3.2 km/h 12.9 km/h 43 % 0 mm
06:00 9.9 °C -1.8 °C 1026 hPa Calm   12.9 km/h 44 % 0 mm
06:05 9.8 °C -1.9 °C 1026 hPa NW 3.2 km/h 12.9 km/h 44 % 0 mm
06:10 9.7 °C -2 °C 1026.3 hPa North 1.6 km/h 9.7 km/h 44 % 0 mm
06:15 9.6 °C -1.8 °C 1026.3 hPa NNW 3.2 km/h 8 km/h 45 % 0 mm
06:20 9.6 °C -1.8 °C 1026.3 hPa WNW 1.6 km/h 8 km/h 45 % 0 mm
06:25 9.5 °C -1.8 °C 1026.3 hPa NNW 3.2 km/h 11.3 km/h 45 % 0 mm
06:35 9.4 °C -1.6 °C 1026.3 hPa NNE 3.2 km/h 11.3 km/h 46 % 0 mm
06:40 9.4 °C -1.6 °C 1026.6 hPa Calm   8 km/h 46 % 0 mm
06:45 9.3 °C -1.7 °C 1026.6 hPa NNE 3.2 km/h 6.4 km/h 46 % 0 mm
06:55 9.2 °C -1.8 °C 1026.6 hPa NW 4.8 km/h 6.4 km/h 46 % 0 mm
07:00 9.2 °C -1.8 °C 1026.6 hPa Calm   6.4 km/h 46 % 0 mm
07:05 9.3 °C -1.7 °C 1026.6 hPa North 1.6 km/h 6.4 km/h 46 % 0 mm
07:10 9.3 °C -1.7 °C 1027 hPa NE 1.6 km/h 8 km/h 46 % 0 mm
07:15 9.4 °C -1.6 °C 1027 hPa NNE 1.6 km/h 8 km/h 46 % 0 mm
07:20 9.4 °C -1.6 °C 1027 hPa NNE 3.2 km/h 8 km/h 46 % 0 mm
07:25 9.5 °C -1.6 °C 1027 hPa NW 1.6 km/h 8 km/h 46 % 0 mm
07:30 9.6 °C -1.8 °C 1027 hPa WNW 3.2 km/h 8 km/h 45 % 0 mm
07:35 9.8 °C -1.6 °C 1027 hPa NW 1.6 km/h 8 km/h 45 % 0 mm
07:40 9.9 °C -1.5 °C 1027.3 hPa NNE 1.6 km/h 8 km/h 45 % 0 mm
07:45 10.3 °C -1.1 °C 1027.3 hPa NNW 6.4 km/h 9.7 km/h 45 % 0 mm
07:50 10.8 °C -1 °C 1027.7 hPa NNE 6.4 km/h 11.3 km/h 44 % 0 mm
07:55 11.2 °C -0.9 °C 1027.7 hPa NW 4.8 km/h 11.3 km/h 43 % 0 mm
08:00 11.5 °C -1 °C 1027.7 hPa ENE 1.6 km/h 11.3 km/h 42 % 0 mm
08:05 11.8 °C -1.4 °C 1028 hPa ENE 12.9 km/h 12.9 km/h 40 % 0 mm
08:10 12.1 °C -0.8 °C 1028 hPa North 1.6 km/h 14.5 km/h 41 % 0 mm
08:15 12.3 °C -1.6 °C 1028 hPa Calm   16.1 km/h 38 % 0 mm
08:20 12.5 °C -1.1 °C 1028.3 hPa NW 11.3 km/h 16.1 km/h 39 % 0 mm
08:25 12.8 °C -1.2 °C 1028.3 hPa Calm   16.1 km/h 38 % 0 mm
08:30 13.2 °C -1.2 °C 1028.3 hPa ENE 1.6 km/h 12.9 km/h 37 % 0 mm
08:35 13.4 °C -1.4 °C 1028.3 hPa NNW 4.8 km/h 14.5 km/h 36 % 0 mm
08:36 13.4 °C -1 °C 1028.3 hPa NNW 9.7 km/h 14.5 km/h 37 % 0 mm
08:41 13.6 °C -2 °C 1028.3 hPa North 3.2 km/h 14.5 km/h 34 % 0 mm
08:46 13.8 °C -2.2 °C 1028.7 hPa North 4.8 km/h 29 km/h 33 % 0 mm
08:51 13.9 °C -1.7 °C 1028.7 hPa NE 4.8 km/h 29 km/h 34 % 0 mm
08:56 14.1 °C -2.4 °C 1028.7 hPa North 6.4 km/h 29 km/h 32 % 0 mm
09:01 14 °C -1.6 °C 1028.7 hPa NNW 8 km/h 24.1 km/h 34 % 0 mm
09:06 14.1 °C -1.9 °C 1028.7 hPa NNE 4.8 km/h 27.4 km/h 33 % 0 mm
09:11 14.1 °C -2.4 °C 1028.7 hPa North 9.7 km/h 27.4 km/h 32 % 0 mm
09:17 14.2 °C -1.4 °C 1028.7 hPa East 3.2 km/h 27.4 km/h 34 % 0 mm
09:22 14.2 °C -1.9 °C 1028.7 hPa NNE 11.3 km/h 20.9 km/h 33 % 0 mm
09:27 13.9 °C -2.5 °C 1029 hPa NNW 3.2 km/h 24.1 km/h 32 % 0 mm
09:32 13.9 °C -2.5 °C 1029 hPa NNW 3.2 km/h 27.4 km/h 32 % 0 mm
09:37 13.9 °C -2.5 °C 1029 hPa NNW 9.7 km/h 27.4 km/h 32 % 0 mm
09:42 14.1 °C -2.4 °C 1029 hPa NNE 6.4 km/h 27.4 km/h 32 % 0 mm
09:47 14.3 °C -2.2 °C 1029.3 hPa North 6.4 km/h 17.7 km/h 32 % 0 mm
09:52 14.4 °C -2.1 °C 1029.3 hPa Calm   24.1 km/h 32 % 0 mm
09:57 14.6 °C -2.3 °C 1029.3 hPa NNE 12.9 km/h 24.1 km/h 31 % 0 mm
10:02 14.7 °C -1.8 °C 1029.3 hPa NNE 11.3 km/h 24.1 km/h 32 % 0 mm
10:07 14.9 °C -1.7 °C 1029.3 hPa ENE 9.7 km/h 22.5 km/h 32 % 0 mm
10:12 15.2 °C -1.4 °C 1029.3 hPa NE 9.7 km/h 22.5 km/h 32 % 0 mm
10:17 15.2 °C -1.4 °C 1029.3 hPa East 1.6 km/h 16.1 km/h 32 % 0 mm
10:22 15.3 °C -2.2 °C 1029.3 hPa NW 6.4 km/h 22.5 km/h 30 % 0 mm
10:27 15.3 °C -2.2 °C 1029.3 hPa East 6.4 km/h 22.5 km/h 30 % 0 mm
10:32 15.6 °C -1.9 °C 1029.3 hPa North 14.5 km/h 22.5 km/h 30 % 0 mm
10:37 15.9 °C -1.7 °C 1029.3 hPa NE 1.6 km/h 19.3 km/h 30 % 0 mm
10:42 16.1 °C -2.4 °C 1029.3 hPa NE 12.9 km/h 17.7 km/h 28 % 0 mm
10:47 16.1 °C -1.5 °C 1029.7 hPa ESE 3.2 km/h 16.1 km/h 30 % 0 mm
10:52 16.2 °C -2.8 °C 1029.3 hPa East 8 km/h 20.9 km/h 27 % 0 mm
10:57 16.2 °C -2.8 °C 1029.3 hPa NE 11.3 km/h 20.9 km/h 27 % 0 mm
10:58 16.2 °C -2.3 °C 1029.3 hPa East 9.7 km/h 20.9 km/h 28 % 0 mm
11:03 16.3 °C -3.2 °C 1029.3 hPa East 11.3 km/h 20.9 km/h 26 % 0 mm
11:08 16.6 °C -3 °C 1029.3 hPa ENE 12.9 km/h 20.9 km/h 26 % 0 mm
11:13 16.8 °C -1.8 °C 1029.3 hPa NNW 6.4 km/h 20.9 km/h 28 % 0 mm
11:18 16.9 °C -2.2 °C 1029.3 hPa North 3.2 km/h 19.3 km/h 27 % 0 mm
11:23 17.2 °C -1 °C 1029.3 hPa NE 3.2 km/h 19.3 km/h 29 % 0 mm
11:28 17.1 °C -2.1 °C 1029.3 hPa East 11.3 km/h 16.1 km/h 27 % 0 mm
11:33 17.2 °C -2.5 °C 1029.3 hPa NW 3.2 km/h 19.3 km/h 26 % 0 mm
11:38 17.2 °C -2 °C 1029.3 hPa SSE 1.6 km/h 19.3 km/h 27 % 0 mm
11:43 17.1 °C -2.1 °C 1029.3 hPa East 1.6 km/h 19.3 km/h 27 % 0 mm
11:48 17.5 °C -1.2 °C 1029.3 hPa NW 9.7 km/h 14.5 km/h 28 % 0 mm
11:53 17.8 °C -2 °C 1029 hPa NW 1.6 km/h 14.5 km/h 26 % 0 mm
11:58 17.5 °C -1.2 °C 1029 hPa WSW 1.6 km/h 14.5 km/h 28 % 0 mm
12:03 17.6 °C -1.6 °C 1028.7 hPa NNE 1.6 km/h 14.5 km/h 27 % 0 mm
12:08 17.6 °C -1.1 °C 1028.7 hPa ESE 6.4 km/h 17.7 km/h 28 % 0 mm
12:13 17.7 °C -2.1 °C 1028.7 hPa North 3.2 km/h 20.9 km/h 26 % 0 mm
12:18 17.9 °C -1.4 °C 1028.7 hPa NNE 6.4 km/h 20.9 km/h 27 % 0 mm
12:23 18 °C -1.3 °C 1028.7 hPa NNE 8 km/h 20.9 km/h 27 % 0 mm
12:28 17.9 °C -1.9 °C 1028.7 hPa SE 3.2 km/h 17.7 km/h 26 % 0 mm
12:33 18.4 °C -0.9 °C 1028.7 hPa Calm   17.7 km/h 27 % 0 mm
12:38 18.3 °C -1 °C 1028.7 hPa WNW 4.8 km/h 17.7 km/h 27 % 0 mm
12:43 18.6 °C -0.8 °C 1028.7 hPa East 3.2 km/h 16.1 km/h 27 % 0 mm
12:48 18.4 °C -2 °C 1028.3 hPa NNW 8 km/h 16.1 km/h 25 % 0 mm
12:53 18.3 °C -1.5 °C 1028.3 hPa NNE 4.8 km/h 17.7 km/h 26 % 0 mm
12:58 18.2 °C -1.6 °C 1028.3 hPa NNW 8 km/h 19.3 km/h 26 % 0 mm
13:03 18.1 °C -2.2 °C 1028 hPa ESE 8 km/h 19.3 km/h 25 % 0 mm
13:06 18 °C -1.3 °C 1028 hPa ESE 1.6 km/h 19.3 km/h 27 % 0 mm
13:11 18.4 °C -0.4 °C 1028 hPa North 3.2 km/h 19.3 km/h 28 % 0 mm
13:16 18.7 °C -1.7 °C 1028 hPa NW 6.4 km/h 16.1 km/h 25 % 0 mm
13:21 18.8 °C -1.7 °C 1028 hPa NNE 6.4 km/h 16.1 km/h 25 % 0 mm
13:26 18.6 °C -1.3 °C 1027.7 hPa NNW 6.4 km/h 16.1 km/h 26 % 0 mm
13:36 18.8 °C -0.6 °C 1027.7 hPa ENE 4.8 km/h 19.3 km/h 27 % 0 mm
13:41 18.9 °C -2.1 °C 1027.7 hPa NE 11.3 km/h 19.3 km/h 24 % 0 mm
13:43 18.8 °C -1.7 °C 1027.7 hPa NE 4.8 km/h 19.3 km/h 25 % 0 mm
13:48 18.7 °C -0.2 °C 1027.7 hPa NNE 4.8 km/h 19.3 km/h 28 % 0 mm
13:53 18.9 °C -0.5 °C 1027.3 hPa NW 3.2 km/h 14.5 km/h 27 % 0 mm
13:58 19.3 °C -0.2 °C 1027.3 hPa WNW 4.8 km/h 14.5 km/h 27 % 0 mm
14:03 19.1 °C -0.9 °C 1027.7 hPa NE 6.4 km/h 19.3 km/h 26 % 0 mm
14:08 19 °C -1.5 °C 1027.7 hPa Calm   19.3 km/h 25 % 0 mm
14:13 19.3 °C -0.7 °C 1027.3 hPa ENE 4.8 km/h 19.3 km/h 26 % 0 mm
14:18 19.2 °C -0.8 °C 1027.3 hPa NW 6.4 km/h 24.1 km/h 26 % 0 mm
14:23 19.3 °C -0.7 °C 1027.3 hPa NNW 8 km/h 24.1 km/h 26 % 0 mm
14:28 19.2 °C -1.3 °C 1027.3 hPa NNE 8 km/h 24.1 km/h 25 % 0 mm
14:33 19 °C -0.4 °C 1027.3 hPa NE 1.6 km/h 16.1 km/h 27 % 0 mm
14:38 19.4 °C -0.1 °C 1027.3 hPa North 11.3 km/h 19.3 km/h 27 % 0 mm
14:43 19.4 °C -0.1 °C 1027.3 hPa West 4.8 km/h 19.3 km/h 27 % 0 mm
14:48 19.4 °C -1.1 °C 1027 hPa North 4.8 km/h 19.3 km/h 25 % 0 mm
14:53 19.3 °C -1.2 °C 1027 hPa NNW 8 km/h 16.1 km/h 25 % 0 mm
14:58 19.3 °C -1.2 °C 1027 hPa North 4.8 km/h 19.3 km/h 25 % 0 mm
15:03 19.3 °C -1.2 °C 1027 hPa NW 4.8 km/h 19.3 km/h 25 % 0 mm
15:08 19.4 °C -0.6 °C 1027 hPa NW 8 km/h 19.3 km/h 26 % 0 mm
15:13 19.6 °C -0.4 °C 1026.6 hPa East 1.6 km/h 16.1 km/h 26 % 0 mm
15:18 19.7 °C -1.4 °C 1027 hPa North 3.2 km/h 19.3 km/h 24 % 0 mm
15:23 19.7 °C -0.9 °C 1026.6 hPa NE 1.6 km/h 19.3 km/h 25 % 0 mm
15:28 19.7 °C -0.9 °C 1026.6 hPa NNW 8 km/h 19.3 km/h 25 % 0 mm
15:33 19.6 °C -2.1 °C 1026.6 hPa WNW 3.2 km/h 20.9 km/h 23 % 0 mm
15:38 19.7 °C -2 °C 1026.6 hPa West 1.6 km/h 20.9 km/h 23 % 0 mm
15:43 19.9 °C -0.7 °C 1026.6 hPa NE 6.4 km/h 20.9 km/h 25 % 0 mm
15:48 19.7 °C -2 °C 1026.6 hPa NNW 4.8 km/h 17.7 km/h 23 % 0 mm
15:53 19.7 °C -0.9 °C 1026.6 hPa ENE 3.2 km/h 14.5 km/h 25 % 0 mm
15:58 19.7 °C -1.4 °C 1026.6 hPa NNW 6.4 km/h 14.5 km/h 24 % 0 mm
16:03 19.4 °C -1.7 °C 1026.6 hPa North 3.2 km/h 11.3 km/h 24 % 0 mm
16:08 19.4 °C -1.7 °C 1026.6 hPa East 3.2 km/h 12.9 km/h 24 % 0 mm
16:13 19.3 °C -1.2 °C 1026.6 hPa North 6.4 km/h 12.9 km/h 25 % 0 mm
16:19 19.2 °C -1.3 °C 1026.6 hPa NNE 11.3 km/h 12.9 km/h 25 % 0 mm
16:24 19.1 °C -1.4 °C 1027 hPa NNE 6.4 km/h 17.7 km/h 25 % 0 mm
16:29 19.1 °C -2.5 °C 1027 hPa Calm   17.7 km/h 23 % 0 mm
16:34 19.1 °C -2 °C 1027 hPa NNW 4.8 km/h 17.7 km/h 24 % 0 mm
16:39 19.2 °C -1.3 °C 1026.6 hPa WNW 3.2 km/h 14.5 km/h 25 % 0 mm
16:44 19.1 °C -0.9 °C 1026.6 hPa NE 3.2 km/h 9.7 km/h 26 % 0 mm
16:49 19.1 °C -0.9 °C 1027 hPa ESE 1.6 km/h 9.7 km/h 26 % 0 mm
16:54 19.1 °C -1.4 °C 1027 hPa NW 3.2 km/h 14.5 km/h 25 % 0 mm
16:59 19 °C -1.5 °C 1027 hPa East 3.2 km/h 14.5 km/h 25 % 0 mm
17:04 19.2 °C -0.8 °C 1027 hPa NE 1.6 km/h 14.5 km/h 26 % 0 mm
17:09 19.2 °C -0.8 °C 1027 hPa NNE 4.8 km/h 8 km/h 26 % 0 mm
17:14 19.1 °C -0.9 °C 1027 hPa NW 4.8 km/h 8 km/h 26 % 0 mm
17:19 18.9 °C -1.6 °C 1027.3 hPa North 3.2 km/h 8 km/h 25 % 0 mm
17:24 18.8 °C -1.7 °C 1027.3 hPa North 3.2 km/h 9.7 km/h 25 % 0 mm
17:29 18.7 °C -2.3 °C 1027.3 hPa North 4.8 km/h 9.7 km/h 24 % 0 mm
17:34 18.6 °C -2.4 °C 1027.3 hPa NNW 1.6 km/h 9.7 km/h 24 % 0 mm
17:39 18.4 °C -2.5 °C 1027.3 hPa ENE 3.2 km/h 9.7 km/h 24 % 0 mm
17:44 18.3 °C -2.6 °C 1027.3 hPa ENE 1.6 km/h 9.7 km/h 24 % 0 mm
17:49 18.2 °C -2.7 °C 1027.7 hPa Calm   9.7 km/h 24 % 0 mm
17:54 18.1 °C -2.2 °C 1027.7 hPa NNE 4.8 km/h 9.7 km/h 25 % 0 mm
17:55 18.1 °C -2.2 °C 1027.7 hPa NNW 1.6 km/h 9.7 km/h 25 % 0 mm
18:00 17.9 °C -1.4 °C 1027.7 hPa North 1.6 km/h 8 km/h 27 % 0 mm
18:05 17.8 °C -1.5 °C 1027.7 hPa Calm   11.3 km/h 27 % 0 mm
18:10 17.6 °C -1.6 °C 1027.7 hPa Calm   11.3 km/h 27 % 0 mm
18:15 17.4 °C -1.3 °C 1027.7 hPa Calm   11.3 km/h 28 % 0 mm
18:20 17.2 °C -1.5 °C 1027.7 hPa North 1.6 km/h 4.8 km/h 28 % 0 mm
18:25 16.9 °C -1.7 °C 1028 hPa Calm   3.2 km/h 28 % 0 mm
18:30 16.7 °C -1.4 °C 1028 hPa Calm   3.2 km/h 29 % 0 mm
18:35 16.4 °C -1.7 °C 1028 hPa Calm   3.2 km/h 29 % 0 mm
18:40 16.2 °C -1.9 °C 1028 hPa Calm   1.6 km/h 29 % 0 mm
18:45 15.9 °C -1.7 °C 1028.3 hPa Calm   1.6 km/h 30 % 0 mm
18:50 15.8 °C -1.7 °C 1028.3 hPa Calm   1.6 km/h 30 % 0 mm
18:55 15.7 °C -1.8 °C 1028.3 hPa Calm   1.6 km/h 30 % 0 mm
19:00 15.5 °C -2 °C 1028.3 hPa Calm   1.6 km/h 30 % 0 mm
19:05 15.3 °C -1.7 °C 1028.3 hPa Calm   1.6 km/h 31 % 0 mm
19:10 15.1 °C -1.5 °C 1028.3 hPa Calm   1.6 km/h 32 % 0 mm
19:15 14.9 °C -1.2 °C 1028.7 hPa Calm   1.6 km/h 33 % 0 mm
19:20 14.7 °C -0.2 °C 1028.7 hPa Calm   1.6 km/h 36 % 0 mm
19:25 14.2 °C -0.7 °C 1028.7 hPa Calm   1.6 km/h 36 % 0 mm
19:30 13.8 °C -0.6 °C 1028.7 hPa Calm   1.6 km/h 37 % 0 mm
19:35 13.8 °C -0.6 °C 1028.7 hPa Calm   1.6 km/h 37 % 0 mm
19:40 13.8 °C -0.6 °C 1028.7 hPa Calm   1.6 km/h 37 % 0 mm
19:45 13.7 °C -0.7 °C 1029 hPa Calm   1.6 km/h 37 % 0 mm
19:50 13.6 °C -0.5 °C 1029 hPa Calm   1.6 km/h 38 % 0 mm
19:55 13.5 °C -0.2 °C 1029.3 hPa Calm   1.6 km/h 39 % 0 mm
20:00 13.3 °C 0 °C 1029.3 hPa Calm   1.6 km/h 40 % 0 mm
20:05 13 °C 0.4 °C 1029.3 hPa Calm   1.6 km/h 42 % 0 mm
20:10 12.9 °C 0.3 °C 1029.3 hPa Calm   1.6 km/h 42 % 0 mm
20:15 12.9 °C 0.3 °C 1029.3 hPa Calm   1.6 km/h 42 % 0 mm
20:20 12.8 °C 0.8 °C 1029.3 hPa Calm   1.6 km/h 44 % 0 mm
20:25 12.5 °C 1.5 °C 1029.3 hPa Calm   1.6 km/h 47 % 0 mm
20:30 12.3 °C 1.6 °C 1029.3 hPa Calm   1.6 km/h 48 % 0 mm
20:35 12.1 °C 1.1 °C 1029.7 hPa Calm   1.6 km/h 47 % 0 mm
20:40 11.7 °C 1 °C 1029.7 hPa Calm   1.6 km/h 48 % 0 mm
20:45 11.6 °C 1.8 °C 1029.7 hPa Calm     51 % 0 mm
20:50 11.4 °C 1.6 °C 1029.7 hPa Calm     51 % 0 mm
20:55 11.4 °C 1.9 °C 1030 hPa Calm     52 % 0 mm
21:00 11.4 °C 1.9 °C 1030 hPa Calm     52 % 0 mm
21:05 11.3 °C 1.8 °C 1030 hPa Calm     52 % 0 mm
21:10 11.1 °C 1.9 °C 1030 hPa Calm     53 % 0 mm
21:16 11.1 °C 1.9 °C 1030 hPa Calm     53 % 0 mm
21:21 10.9 °C 2.2 °C 1030 hPa Calm     55 % 0 mm
21:26 10.9 °C 2 °C 1030 hPa Calm     54 % 0 mm
21:31 10.6 °C 1.9 °C 1030.4 hPa Calm     55 % 0 mm
21:36 10.4 °C 2 °C 1030.4 hPa Calm     56 % 0 mm
21:41 10.3 °C 2.2 °C 1030.4 hPa Calm     57 % 0 mm
21:46 10.2 °C 2.1 °C 1030.4 hPa Calm     57 % 0 mm
21:51 9.9 °C 1.8 °C 1030.4 hPa Calm     57 % 0 mm
21:57 10 °C 2.4 °C 1030.4 hPa Calm     59 % 0 mm
22:02 10.1 °C 2.4 °C 1030.4 hPa Calm     59 % 0 mm
22:07 10 °C 2.6 °C 1030.4 hPa Calm     60 % 0 mm
22:12 9.9 °C 2.5 °C 1030.4 hPa Calm     60 % 0 mm
22:17 9.8 °C 2.6 °C 1030.4 hPa Calm     61 % 0 mm
22:22 9.8 °C 2.6 °C 1030.4 hPa Calm     61 % 0 mm
22:27 9.7 °C 2.5 °C 1030.4 hPa Calm     61 % 0 mm
22:32 9.5 °C 2.6 °C 1030.4 hPa Calm     62 % 0 mm
22:37 9.5 °C 2.8 °C 1030.4 hPa Calm     63 % 0 mm
22:42 9.6 °C 3.1 °C 1030.4 hPa Calm     64 % 0 mm
22:47 9.6 °C 2.9 °C 1030.4 hPa Calm     63 % 0 mm
22:52 9.6 °C 2.7 °C 1030.4 hPa Calm     62 % 0 mm
22:57 9.5 °C 2.6 °C 1030.4 hPa Calm     62 % 0 mm
23:02 9.4 °C 2.5 °C 1030.7 hPa Calm     62 % 0 mm
23:07 9.4 °C 2.5 °C 1030.7 hPa Calm     62 % 0 mm
23:12 9.5 °C 2.6 °C 1030.7 hPa Calm     62 % 0 mm
23:17 9.6 °C 2.7 °C 1030.7 hPa Calm     62 % 0 mm
23:22 9.6 °C 2.7 °C 1030.7 hPa Calm     62 % 0 mm
23:27 9.6 °C 2.4 °C 1030.7 hPa Calm   1.6 km/h 61 % 0 mm
23:32 9.6 °C 2.7 °C 1031 hPa Calm   1.6 km/h 62 % 0 mm
23:37 9.4 °C 2.5 °C 1031 hPa Calm   1.6 km/h 62 % 0 mm
23:42 9.3 °C 2.4 °C 1031 hPa Calm     62 % 0 mm
23:47 9.3 °C 2.4 °C 1031 hPa Calm   1.6 km/h 62 % 0 mm
23:52 9.4 °C 2.5 °C 1031 hPa North 1.6 km/h 1.6 km/h 62 % 0 mm
23:57 9.4 °C 2.5 °C 1031 hPa Calm   1.6 km/h 62 % 0 mm
Spring, Texas: Villages of Bridgestone
Compliments of Weather Underground - 2.75 mb

Script developed by  Jim McMurry - jmcmurry@mwt.net Adapted for the template by  Wim van der Kuil - Leuven-Template.eu

You find our weather info also at:

UK Metoffice

WeatherCloud

Weather Underground

Mid-South Weather Network

AWEKAS

Citizen Weather Observer Program (CWOP)

HAMweather, WeatherForYou, PWS Weather

Equipment we use:

Weather-station
Davis Vantage Vue

Weather-program
Meteohub

Weather-server
Debian 7.9 x86 (Guest)

Provider
DreamHost

Davis Vantage Vue

Meteohub

Debian 7.9 x86 (Guest)

DreamHost